Time,TemperatureF,DewpointF,PressureIn,WindDirection,WindDirectionDegrees,WindSpeedMPH,WindSpeedGustMPH,Humidity,HourlyPrecipIn,Conditions,Clouds,dailyrainin,SoftwareType,DateUTC
2013-04-05 00:02:00,50.4,49.9,29.90,SSW,208,13.0,24.0,98,0.00,,,0.33,Wunderground v.1.15,2013-04-05 07:02:00,
2013-04-05 00:12:00,50.4,49.9,29.90,South,186,12.0,24.0,98,0.00,,,0.33,Wunderground v.1.15,2013-04-05 07:12:00,
2013-04-05 00:22:00,50.3,49.8,29.90,SSW,207,13.0,22.0,98,0.00,,,0.33,Wunderground v.1.15,2013-04-05 07:22:00,
2013-04-05 00:27:00,50.3,49.8,29.90,South,184,13.0,22.0,98,0.00,,,0.33,Wunderground v.1.15,2013-04-05 07:27:00,
2013-04-05 00:37:00,50.3,49.5,29.90,SW,224,12.0,21.0,97,0.00,,,0.33,Wunderground v.1.15,2013-04-05 07:37:00,
2013-04-05 00:47:00,50.2,49.4,29.91,South,187,12.0,23.0,97,0.00,,,0.33,Wunderground v.1.15,2013-04-05 07:47:00,
2013-04-05 00:52:00,50.2,49.4,29.91,SSW,205,13.0,13.0,97,0.00,,,0.33,Wunderground v.1.15,2013-04-05 07:52:00,
2013-04-05 01:02:00,50.2,49.4,29.91,SW,215,11.0,21.0,97,0.00,,,0.33,Wunderground v.1.15,2013-04-05 08:02:00,
2013-04-05 01:12:00,50.3,49.5,29.91,SSW,200,12.0,19.0,97,0.00,,,0.33,Wunderground v.1.15,2013-04-05 08:12:00,
2013-04-05 01:22:00,50.2,49.7,29.91,SW,230,12.0,12.0,98,0.00,,,0.33,Wunderground v.1.15,2013-04-05 08:22:00,
2013-04-05 01:27:00,50.2,49.7,29.91,SSW,202,12.0,23.0,98,0.00,,,0.33,Wunderground v.1.15,2013-04-05 08:27:00,
2013-04-05 01:37:00,50.2,49.7,29.91,SSW,196,12.0,23.0,98,0.00,,,0.33,Wunderground v.1.15,2013-04-05 08:37:00,
2013-04-05 01:47:00,50.3,49.8,29.92,SW,219,13.0,23.0,98,0.00,,,0.33,Wunderground v.1.15,2013-04-05 08:47:00,
2013-04-05 01:52:00,50.3,49.8,29.92,SW,231,13.0,13.0,98,0.00,,,0.33,Wunderground v.1.15,2013-04-05 08:52:00,
2013-04-05 02:02:00,50.3,49.8,29.92,SW,229,13.0,13.0,98,0.00,,,0.33,Wunderground v.1.15,2013-04-05 09:02:00,
2013-04-05 02:12:00,50.3,49.8,29.92,SSW,194,14.0,14.0,98,0.00,,,0.33,Wunderground v.1.15,2013-04-05 09:12:00,
2013-04-05 02:22:00,50.2,49.7,29.93,South,190,14.0,14.0,98,0.00,,,0.33,Wunderground v.1.15,2013-04-05 09:22:00,
2013-04-05 02:27:00,50.2,49.7,29.93,SW,214,14.0,26.0,98,0.00,,,0.33,Wunderground v.1.15,2013-04-05 09:27:00,
2013-04-05 02:37:00,50.2,49.7,29.93,SSW,195,14.0,24.0,98,0.00,,,0.33,Wunderground v.1.15,2013-04-05 09:37:00,
2013-04-05 02:47:00,50.2,49.7,29.93,SSW,200,14.0,27.0,98,0.00,,,0.33,Wunderground v.1.15,2013-04-05 09:47:00,
2013-04-05 02:57:00,50.2,49.7,29.93,SSW,211,12.0,23.0,98,0.00,,,0.33,Wunderground v.1.15,2013-04-05 09:57:00,
2013-04-05 03:07:00,50.1,49.6,29.94,South,189,13.0,21.0,98,0.00,,,0.33,Wunderground v.1.15,2013-04-05 10:07:00,
2013-04-05 03:17:00,50.1,49.6,29.94,SSW,198,12.0,24.0,98,0.00,,,0.33,Wunderground v.1.15,2013-04-05 10:17:00,
2013-04-05 03:22:00,50.1,49.6,29.94,SSW,201,12.0,21.0,98,0.00,,,0.33,Wunderground v.1.15,2013-04-05 10:22:00,
2013-04-05 03:32:00,50.1,49.6,29.94,SSW,211,13.0,23.0,98,0.00,,,0.33,Wunderground v.1.15,2013-04-05 10:32:00,
2013-04-05 03:37:00,50.1,49.6,29.94,SW,219,12.0,23.0,98,0.00,,,0.33,Wunderground v.1.15,2013-04-05 10:37:00,
2013-04-05 03:42:00,50.1,49.6,29.94,SSW,205,11.0,11.0,98,0.00,,,0.33,Wunderground v.1.15,2013-04-05 10:42:00,
2013-04-05 03:57:00,50.1,49.6,29.95,SSW,212,10.0,19.0,98,0.00,,,0.33,Wunderground v.1.15,2013-04-05 10:57:00,
2013-04-05 04:07:00,50.1,49.6,29.95,SSW,201,12.0,20.0,98,0.00,,,0.33,Wunderground v.1.15,2013-04-05 11:07:00,
2013-04-05 04:12:00,50.1,49.6,29.95,South,177,10.0,21.0,98,0.00,,,0.33,Wunderground v.1.15,2013-04-05 11:12:00,
2013-04-05 04:22:00,50.1,49.6,29.96,SW,215,12.0,12.0,98,0.00,,,0.33,Wunderground v.1.15,2013-04-05 11:22:00,
2013-04-05 04:27:00,50.0,49.5,29.96,South,185,11.0,16.0,98,0.00,,,0.33,Wunderground v.1.15,2013-04-05 11:27:00,
2013-04-05 04:37:00,50.0,49.5,29.95,SSW,194,10.0,18.0,98,0.00,,,0.33,Wunderground v.1.15,2013-04-05 11:37:00,
2013-04-05 04:47:00,50.0,49.5,29.95,SSW,213,10.0,22.0,98,0.00,,,0.33,Wunderground v.1.15,2013-04-05 11:47:00,
2013-04-05 04:57:00,50.0,49.5,29.95,South,179,11.0,19.0,98,0.00,,,0.33,Wunderground v.1.15,2013-04-05 11:57:00,
2013-04-05 05:02:00,49.9,49.4,29.95,SSW,208,11.0,11.0,98,0.00,,,0.33,Wunderground v.1.15,2013-04-05 12:02:00,
2013-04-05 05:12:00,49.9,49.4,29.95,SSW,209,11.0,11.0,98,0.00,,,0.33,Wunderground v.1.15,2013-04-05 12:12:00,
2013-04-05 05:17:00,49.9,49.4,29.95,SSW,208,10.0,18.0,98,0.00,,,0.33,Wunderground v.1.15,2013-04-05 12:17:00,
2013-04-05 05:27:00,49.8,49.3,29.95,SSW,199,10.0,18.0,98,0.00,,,0.33,Wunderground v.1.15,2013-04-05 12:27:00,
2013-04-05 05:37:00,49.8,49.3,29.96,SSW,192,10.0,21.0,98,0.00,,,0.33,Wunderground v.1.15,2013-04-05 12:37:00,
2013-04-05 05:47:00,49.9,49.4,29.95,SSW,192,10.0,17.0,98,0.00,,,0.33,Wunderground v.1.15,2013-04-05 12:47:00,
2013-04-05 05:57:00,49.9,49.4,29.96,South,175,10.0,20.0,98,0.00,,,0.33,Wunderground v.1.15,2013-04-05 12:57:00,
2013-04-05 06:02:00,49.9,49.4,29.95,SSW,201,11.0,20.0,98,0.00,,,0.33,Wunderground v.1.15,2013-04-05 13:02:00,
2013-04-05 06:07:00,49.9,49.4,29.95,South,181,11.0,20.0,98,0.00,,,0.33,Wunderground v.1.15,2013-04-05 13:07:00,
2013-04-05 06:17:00,49.9,49.4,29.96,SW,215,11.0,20.0,98,0.00,,,0.33,Wunderground v.1.15,2013-04-05 13:17:00,
2013-04-05 06:22:00,49.9,49.4,29.96,South,190,12.0,23.0,98,0.00,,,0.33,Wunderground v.1.15,2013-04-05 13:22:00,
2013-04-05 06:32:00,49.9,49.4,29.96,South,188,11.0,11.0,98,0.00,,,0.33,Wunderground v.1.15,2013-04-05 13:32:00,
2013-04-05 06:37:00,49.9,49.4,29.95,SSW,210,10.0,16.0,98,0.00,,,0.33,Wunderground v.1.15,2013-04-05 13:37:00,
2013-04-05 06:47:00,49.8,49.3,29.95,South,177,11.0,18.0,98,0.00,,,0.33,Wunderground v.1.15,2013-04-05 13:47:00,
2013-04-05 06:52:00,49.9,49.4,29.96,SSW,192,12.0,12.0,98,0.00,,,0.33,Wunderground v.1.15,2013-04-05 13:52:00,
2013-04-05 07:02:00,49.9,49.4,29.96,SSW,209,12.0,22.0,98,0.00,,,0.33,Wunderground v.1.15,2013-04-05 14:02:00,
2013-04-05 07:12:00,49.8,49.3,29.96,SSW,210,11.0,11.0,98,0.00,,,0.33,Wunderground v.1.15,2013-04-05 14:12:00,
2013-04-05 07:17:00,49.8,49.3,29.96,SSW,194,10.0,17.0,98,0.00,,,0.33,Wunderground v.1.15,2013-04-05 14:17:00,
2013-04-05 07:27:00,49.8,49.3,29.96,South,188,10.0,20.0,98,0.00,,,0.33,Wunderground v.1.15,2013-04-05 14:27:00,
2013-04-05 07:32:00,49.9,49.4,29.96,SSW,194,10.0,10.0,98,0.00,,,0.33,Wunderground v.1.15,2013-04-05 14:32:00,
2013-04-05 07:42:00,49.9,49.4,29.97,South,186,12.0,12.0,98,0.00,,,0.00,Wunderground v.1.15,2013-04-05 14:42:00,
2013-04-05 07:52:00,49.9,49.4,29.97,SSW,197,11.0,11.0,98,0.00,,,0.00,Wunderground v.1.15,2013-04-05 14:52:00,
2013-04-05 07:57:00,49.9,49.4,29.97,SW,227,11.0,16.0,98,0.00,,,0.00,Wunderground v.1.15,2013-04-05 14:57:00,
2013-04-05 08:07:00,49.9,49.4,29.97,SSE,161,10.0,15.0,98,0.00,,,0.00,Wunderground v.1.15,2013-04-05 15:07:00,
2013-04-05 08:17:00,50.0,49.5,29.97,SSW,198,10.0,19.0,98,0.00,,,0.00,Wunderground v.1.15,2013-04-05 15:17:00,
2013-04-05 08:22:00,50.0,49.2,29.97,South,173,11.0,11.0,97,0.00,,,0.00,Wunderground v.1.15,2013-04-05 15:22:00,
2013-04-05 08:32:00,50.0,49.2,29.97,SSW,202,11.0,22.0,97,0.00,,,0.00,Wunderground v.1.15,2013-04-05 15:32:00,
2013-04-05 08:42:00,50.1,49.3,29.98,SSW,209,11.0,11.0,97,0.00,,,0.00,Wunderground v.1.15,2013-04-05 15:42:00,
2013-04-05 08:57:00,50.1,49.3,29.98,SW,219,11.0,21.0,97,0.00,,,0.00,Wunderground v.1.15,2013-04-05 15:57:00,
2013-04-05 09:07:00,50.0,49.2,29.98,SSW,206,12.0,20.0,97,0.00,,,0.00,Wunderground v.1.15,2013-04-05 16:07:00,
2013-04-05 09:17:00,50.0,49.2,29.98,SSE,163,11.0,20.0,97,0.00,,,0.01,Wunderground v.1.15,2013-04-05 16:17:00,
2013-04-05 09:27:00,50.0,49.2,29.97,SW,216,10.0,14.0,97,0.00,,,0.01,Wunderground v.1.15,2013-04-05 16:27:00,
2013-04-05 09:37:00,49.9,49.1,29.97,South,184,11.0,22.0,97,0.00,,,0.01,Wunderground v.1.15,2013-04-05 16:37:00,
2013-04-05 09:47:00,49.9,49.1,29.98,SW,219,11.0,19.0,97,0.00,,,0.01,Wunderground v.1.15,2013-04-05 16:47:00,
2013-04-05 09:57:00,50.0,49.2,29.98,SSW,209,12.0,25.0,97,0.00,,,0.01,Wunderground v.1.15,2013-04-05 16:57:00,
2013-04-05 10:02:00,50.1,49.3,29.97,South,187,11.0,11.0,97,0.00,,,0.01,Wunderground v.1.15,2013-04-05 17:02:00,
2013-04-05 10:12:00,50.4,49.9,29.98,SSW,209,12.0,12.0,98,0.00,,,0.01,Wunderground v.1.15,2013-04-05 17:12:00,
2013-04-05 10:17:00,50.4,49.6,29.98,South,183,13.0,15.0,97,0.00,,,0.01,Wunderground v.1.15,2013-04-05 17:17:00,
2013-04-05 10:22:00,50.3,49.5,29.98,SSW,206,13.0,13.0,97,0.00,,,0.01,Wunderground v.1.15,2013-04-05 17:22:00,
2013-04-05 10:32:00,50.0,49.2,29.98,SSW,212,14.0,14.0,97,0.00,,,0.01,Wunderground v.1.15,2013-04-05 17:32:00,
2013-04-05 10:37:00,50.1,49.3,29.98,South,187,14.0,15.0,97,0.00,,,0.01,Wunderground v.1.15,2013-04-05 17:37:00,
2013-04-05 10:47:00,50.4,49.6,29.98,SSW,209,13.0,21.0,97,0.00,,,0.01,Wunderground v.1.15,2013-04-05 17:47:00,
2013-04-05 10:57:00,50.5,49.7,29.99,South,171,13.0,13.0,97,0.00,,,0.01,Wunderground v.1.15,2013-04-05 17:57:00,
2013-04-05 11:02:00,50.7,49.9,29.99,SSW,194,12.0,12.0,97,0.00,,,0.01,Wunderground v.1.15,2013-04-05 18:02:00,
2013-04-05 11:12:00,50.7,49.6,29.99,SSW,207,14.0,28.0,96,0.00,,,0.01,Wunderground v.1.15,2013-04-05 18:12:00,
2013-04-05 11:22:00,50.7,49.6,29.99,SSE,159,13.0,13.0,96,0.00,,,0.01,Wunderground v.1.15,2013-04-05 18:22:00,
2013-04-05 11:32:00,50.3,49.2,29.99,South,170,13.0,24.0,96,0.00,,,0.01,Wunderground v.1.15,2013-04-05 18:32:00,
2013-04-05 11:42:00,50.0,50.0,29.99,SSW,194,13.0,13.0,100,0.00,,,0.01,Wunderground v.1.15,2013-04-05 18:42:00,
2013-04-05 11:52:00,50.1,49.3,29.99,South,190,13.0,22.0,97,0.00,,,0.01,Wunderground v.1.15,2013-04-05 18:52:00,
2013-04-05 12:02:00,50.2,49.4,29.99,WSW,238,13.0,13.0,97,0.00,,,0.01,Wunderground v.1.15,2013-04-05 19:02:00,
2013-04-05 12:07:00,50.5,49.7,29.99,SSW,201,12.0,24.0,97,0.00,,,0.01,Wunderground v.1.15,2013-04-05 19:07:00,
2013-04-05 12:17:00,50.7,49.9,29.99,South,171,12.0,22.0,97,0.00,,,0.01,Wunderground v.1.15,2013-04-05 19:17:00,
2013-04-05 12:22:00,50.7,49.9,29.99,SSW,200,12.0,24.0,97,0.00,,,0.01,Wunderground v.1.15,2013-04-05 19:22:00,
2013-04-05 12:32:00,50.7,49.9,29.99,South,188,15.0,15.0,97,0.00,,,0.01,Wunderground v.1.15,2013-04-05 19:32:00,
2013-04-05 12:42:00,50.8,50.0,29.99,SSW,211,14.0,14.0,97,0.00,,,0.01,Wunderground v.1.15,2013-04-05 19:42:00,
2013-04-05 12:52:00,50.9,50.1,29.99,SSE,167,14.0,14.0,97,0.00,,,0.01,Wunderground v.1.15,2013-04-05 19:52:00,
2013-04-05 13:02:00,50.7,49.9,29.99,South,181,15.0,30.0,97,0.00,,,0.01,Wunderground v.1.15,2013-04-05 20:02:00,
2013-04-05 13:07:00,50.6,49.8,29.98,SSW,192,16.0,30.0,97,0.00,,,0.01,Wunderground v.1.15,2013-04-05 20:07:00,
2013-04-05 13:17:00,50.6,49.8,29.98,South,180,14.0,26.0,97,0.00,,,0.01,Wunderground v.1.15,2013-04-05 20:17:00,
2013-04-05 13:22:00,50.5,49.4,29.98,SSW,206,14.0,25.0,96,0.00,,,0.01,Wunderground v.1.15,2013-04-05 20:22:00,
2013-04-05 13:27:00,50.4,49.3,29.98,South,189,13.0,25.0,96,0.00,,,0.01,Wunderground v.1.15,2013-04-05 20:27:00,
2013-04-05 13:37:00,50.3,49.5,29.98,South,180,14.0,16.0,97,0.00,,,0.02,Wunderground v.1.15,2013-04-05 20:37:00,
2013-04-05 13:47:00,50.2,49.4,29.98,SW,214,14.0,27.0,97,0.04,,,0.03,Wunderground v.1.15,2013-04-05 20:47:00,
2013-04-05 13:52:00,50.2,49.4,29.98,SSW,202,13.0,24.0,97,0.04,,,0.03,Wunderground v.1.15,2013-04-05 20:52:00,
2013-04-05 14:02:00,50.3,49.5,29.98,SW,218,14.0,24.0,97,0.05,,,0.04,Wunderground v.1.15,2013-04-05 21:02:00,
2013-04-05 14:12:00,50.3,49.5,29.99,SSW,196,14.0,14.0,97,0.06,,,0.05,Wunderground v.1.15,2013-04-05 21:12:00,
2013-04-05 14:22:00,50.2,49.4,29.98,SW,232,15.0,30.0,97,0.06,,,0.06,Wunderground v.1.15,2013-04-05 21:22:00,
2013-04-05 14:32:00,50.3,49.5,29.98,South,190,15.0,24.0,97,0.06,,,0.07,Wunderground v.1.15,2013-04-05 21:32:00,
2013-04-05 14:37:00,50.4,49.6,29.98,SSW,199,12.0,25.0,97,0.04,,,0.07,Wunderground v.1.15,2013-04-05 21:37:00,
2013-04-05 14:47:00,50.2,49.4,29.98,SSW,202,15.0,26.0,97,0.04,,,0.08,Wunderground v.1.15,2013-04-05 21:47:00,
2013-04-05 14:57:00,50.2,49.4,29.98,SSW,207,12.0,25.0,97,0.06,,,0.09,Wunderground v.1.15,2013-04-05 21:57:00,
2013-04-05 15:07:00,50.0,49.2,29.98,South,187,15.0,25.0,97,0.05,,,0.10,Wunderground v.1.15,2013-04-05 22:07:00,
2013-04-05 15:17:00,50.1,49.3,29.98,SSW,210,14.0,27.0,97,0.07,,,0.11,Wunderground v.1.15,2013-04-05 22:17:00,
2013-04-05 15:27:00,50.1,49.3,29.97,SW,216,14.0,26.0,97,0.04,,,0.11,Wunderground v.1.15,2013-04-05 22:27:00,
2013-04-05 15:37:00,50.1,49.3,29.97,SSW,207,13.0,25.0,97,0.00,,,0.12,Wunderground v.1.15,2013-04-05 22:37:00,
2013-04-05 15:47:00,49.9,49.1,29.97,SSW,209,11.0,17.0,97,0.08,,,0.13,Wunderground v.1.15,2013-04-05 22:47:00,
2013-04-05 15:52:00,50.0,49.2,29.97,South,191,11.0,11.0,97,0.05,,,0.13,Wunderground v.1.15,2013-04-05 22:52:00,
2013-04-05 16:02:00,49.9,49.1,29.96,SSW,192,12.0,12.0,97,0.05,,,0.14,Wunderground v.1.15,2013-04-05 23:02:00,
2013-04-05 16:07:00,50.0,49.2,29.96,SSW,199,12.0,25.0,97,0.06,,,0.15,Wunderground v.1.15,2013-04-05 23:07:00,
2013-04-05 16:17:00,50.2,49.4,29.96,SSE,153,15.0,15.0,97,0.04,,,0.15,Wunderground v.1.15,2013-04-05 23:17:00,
2013-04-05 16:27:00,50.2,49.4,29.96,SW,218,15.0,28.0,97,0.00,,,0.16,Wunderground v.1.15,2013-04-05 23:27:00,
2013-04-05 16:32:00,50.2,49.4,29.95,SSW,210,15.0,28.0,97,0.00,,,0.16,Wunderground v.1.15,2013-04-05 23:32:00,
2013-04-05 16:42:00,50.2,49.4,29.95,SSW,200,15.0,15.0,97,0.00,,,0.16,Wunderground v.1.15,2013-04-05 23:42:00,
2013-04-05 16:52:00,50.2,49.4,29.94,SW,227,14.0,27.0,97,0.00,,,0.17,Wunderground v.1.15,2013-04-05 23:52:00,
2013-04-05 16:57:00,50.1,49.3,29.94,South,173,13.0,27.0,97,0.00,,,0.17,Wunderground v.1.15,2013-04-05 23:57:00,
2013-04-05 17:07:00,50.3,49.5,29.94,SSW,205,13.0,25.0,97,0.00,,,0.17,Wunderground v.1.15,2013-04-06 00:07:00,
2013-04-05 17:12:00,50.4,49.6,29.94,SW,222,13.0,24.0,97,0.00,,,0.17,Wunderground v.1.15,2013-04-06 00:12:00,
2013-04-05 17:22:00,50.4,49.6,29.93,SW,218,14.0,27.0,97,0.00,,,0.18,Wunderground v.1.15,2013-04-06 00:22:00,
2013-04-05 17:27:00,50.3,49.5,29.93,SW,233,15.0,27.0,97,0.00,,,0.18,Wunderground v.1.15,2013-04-06 00:27:00,
2013-04-05 17:37:00,50.3,49.5,29.92,South,190,12.0,24.0,97,0.00,,,0.18,Wunderground v.1.15,2013-04-06 00:37:00,
2013-04-05 17:47:00,50.5,49.7,29.92,South,180,14.0,20.0,97,0.00,,,0.18,Wunderground v.1.15,2013-04-06 00:47:00,
2013-04-05 17:57:00,50.6,49.8,29.91,SSE,148,12.0,22.0,97,0.00,,,0.18,Wunderground v.1.15,2013-04-06 00:57:00,
2013-04-05 18:07:00,50.8,49.7,29.91,SSW,213,10.0,21.0,96,0.00,,,0.18,Wunderground v.1.15,2013-04-06 01:07:00,
2013-04-05 18:17:00,50.8,49.7,29.91,SSE,161,8.0,15.0,96,0.00,,,0.19,Wunderground v.1.15,2013-04-06 01:17:00,
2013-04-05 18:27:00,51.0,49.9,29.91,South,184,8.0,16.0,96,0.00,,,0.19,Wunderground v.1.15,2013-04-06 01:27:00,
2013-04-05 18:32:00,51.0,49.9,29.91,SSW,211,8.0,15.0,96,0.00,,,0.19,Wunderground v.1.15,2013-04-06 01:32:00,
2013-04-05 18:42:00,51.3,50.2,29.91,South,187,9.0,18.0,96,0.00,,,0.19,Wunderground v.1.15,2013-04-06 01:42:00,
2013-04-05 18:52:00,51.4,50.0,29.90,SW,215,13.0,33.0,95,0.00,,,0.19,Wunderground v.1.15,2013-04-06 01:52:00,
2013-04-05 19:02:00,51.2,49.8,29.90,SSW,211,13.0,13.0,95,0.00,,,0.19,Wunderground v.1.15,2013-04-06 02:02:00,
2013-04-05 19:17:00,50.9,49.8,29.89,SSW,202,11.0,22.0,96,0.00,,,0.19,Wunderground v.1.15,2013-04-06 02:17:00,
2013-04-05 19:22:00,51.0,49.9,29.88,South,184,11.0,11.0,96,0.00,,,0.20,Wunderground v.1.15,2013-04-06 02:22:00,
2013-04-05 19:32:00,51.1,49.7,29.88,SE,144,14.0,14.0,95,0.00,,,0.20,Wunderground v.1.15,2013-04-06 02:32:00,
2013-04-05 19:42:00,51.4,50.0,29.87,SSW,205,16.0,16.0,95,0.00,,,0.20,Wunderground v.1.15,2013-04-06 02:42:00,
2013-04-05 19:47:00,51.4,50.0,29.87,SSE,151,15.0,31.0,95,0.00,,,0.20,Wunderground v.1.15,2013-04-06 02:47:00,
2013-04-05 19:52:00,51.4,50.0,29.87,South,189,15.0,15.0,95,0.00,,,0.20,Wunderground v.1.15,2013-04-06 02:52:00,
2013-04-05 20:02:00,51.2,49.8,29.86,SW,223,16.0,16.0,95,0.00,,,0.21,Wunderground v.1.15,2013-04-06 03:02:00,
2013-04-05 20:12:00,51.1,49.7,29.85,SSW,213,14.0,25.0,95,0.04,,,0.22,Wunderground v.1.15,2013-04-06 03:12:00,
2013-04-05 20:22:00,51.0,49.6,29.85,SSW,196,17.0,17.0,95,0.04,,,0.22,Wunderground v.1.15,2013-04-06 03:22:00,
2013-04-05 20:27:00,51.0,49.6,29.85,SSW,206,17.0,25.0,95,0.04,,,0.23,Wunderground v.1.15,2013-04-06 03:27:00,
2013-04-05 20:37:00,51.0,49.9,29.85,SSW,211,15.0,18.0,96,0.04,,,0.23,Wunderground v.1.15,2013-04-06 03:37:00,
2013-04-05 20:47:00,51.1,50.0,29.85,SSW,199,17.0,23.0,96,0.00,,,0.23,Wunderground v.1.15,2013-04-06 03:47:00,
2013-04-05 20:57:00,51.2,50.1,29.85,North,360,14.0,29.0,96,0.00,,,0.24,Wunderground v.1.15,2013-04-06 03:57:00,
2013-04-05 21:02:00,51.3,50.2,29.85,SSW,195,15.0,26.0,96,0.00,,,0.24,Wunderground v.1.15,2013-04-06 04:02:00,
2013-04-05 21:12:00,51.5,50.4,29.85,SSW,199,15.0,35.0,96,0.00,,,0.24,Wunderground v.1.15,2013-04-06 04:12:00,
2013-04-05 21:17:00,51.5,50.4,29.85,SSW,201,15.0,35.0,96,0.00,,,0.24,Wunderground v.1.15,2013-04-06 04:17:00,
2013-04-05 21:22:00,51.5,50.4,29.86,SSW,194,16.0,16.0,96,0.00,,,0.24,Wunderground v.1.15,2013-04-06 04:22:00,
2013-04-05 21:27:00,51.5,50.1,29.86,SW,227,18.0,18.0,95,0.00,,,0.24,Wunderground v.1.15,2013-04-06 04:27:00,
2013-04-05 21:37:00,51.4,50.0,29.85,SW,214,18.0,39.0,95,0.00,,,0.25,Wunderground v.1.15,2013-04-06 04:37:00,
2013-04-05 21:47:00,51.2,50.1,29.85,SSW,192,19.0,19.0,96,0.07,,,0.26,Wunderground v.1.15,2013-04-06 04:47:00,
2013-04-05 21:52:00,51.1,50.0,29.85,SSW,204,18.0,32.0,96,0.05,,,0.27,Wunderground v.1.15,2013-04-06 04:52:00,
2013-04-05 22:02:00,50.8,49.7,29.85,SW,219,18.0,30.0,96,0.14,,,0.29,Wunderground v.1.15,2013-04-06 05:02:00,
2013-04-05 22:12:00,50.7,49.6,29.85,North,360,19.0,36.0,96,0.11,,,0.31,Wunderground v.1.15,2013-04-06 05:12:00,
2013-04-05 22:22:00,50.6,49.5,29.85,SW,219,21.0,42.0,96,0.07,,,0.32,Wunderground v.1.15,2013-04-06 05:22:00,
2013-04-05 22:32:00,50.7,49.6,29.85,South,184,21.0,21.0,96,0.05,,,0.33,Wunderground v.1.15,2013-04-06 05:32:00,
2013-04-05 22:37:00,50.7,49.9,29.86,SSW,209,20.0,25.0,97,0.05,,,0.33,Wunderground v.1.15,2013-04-06 05:37:00,
2013-04-05 22:47:00,50.7,49.6,29.87,SW,219,20.0,21.0,96,0.00,,,0.33,Wunderground v.1.15,2013-04-06 05:47:00,
2013-04-05 22:52:00,50.7,49.6,29.86,SW,216,19.0,19.0,96,0.00,,,0.33,Wunderground v.1.15,2013-04-06 05:52:00,
2013-04-05 22:57:00,50.6,49.5,29.86,SW,232,18.0,33.0,96,0.00,,,0.33,Wunderground v.1.15,2013-04-06 05:57:00,
2013-04-05 23:07:00,50.7,49.6,29.87,SSW,207,20.0,39.0,96,0.00,,,0.33,Wunderground v.1.15,2013-04-06 06:07:00,
2013-04-05 23:17:00,50.7,49.6,29.87,SSW,207,18.0,30.0,96,0.00,,,0.33,Wunderground v.1.15,2013-04-06 06:17:00,
2013-04-05 23:22:00,50.7,49.6,29.87,SW,228,18.0,32.0,96,0.00,,,0.33,Wunderground v.1.15,2013-04-06 06:22:00,
2013-04-05 23:32:00,50.7,49.6,29.87,SW,218,17.0,31.0,96,0.00,,,0.33,Wunderground v.1.15,2013-04-06 06:32:00,
2013-04-05 23:42:00,50.6,49.5,29.88,SW,214,19.0,19.0,96,0.00,,,0.33,Wunderground v.1.15,2013-04-06 06:42:00,
2013-04-05 23:52:00,50.6,49.5,29.88,SW,223,17.0,17.0,96,0.00,,,0.33,Wunderground v.1.15,2013-04-06 06:52:00,